Other Public Products
Issued by NWS Charleston, SC

Current Version | Previous Version | Text Only | Print | Product List | Glossary Off
Versions: 1 2 3 4 5 6 7 8 9 10 11 12 13 14 15 16 17 18 19 20 21 22 23 24 25 26 27 28 29 30 31 32 33 34 35 36 37 38 39 40 41 42 43 44 45 46 47 48 49 50

000
FPUS82 KCHS 300627
OPUCHS

TEST...KCHS/KSAV Gateway Observations...TEST
National Weather Service Charleston SC
200 AM EDT THU MAR 30 2017

NOTE: "fair" indicates few or no clouds below 12,000 feet with no
significant weather and/or obstructions to visibility.

SCZ050-WAZ558-NCZ071-TXZ119-213-PAZ071-DCZ001-FLZ074-172-MI076-
NYZ176-178-MAZ016-IL014-TNZ027-NJZ106-GAZ044-MD014-300700-

...Gateway Observations for Charleston International...

CITY           SKY/WX    TMP DP  RH WIND       PRES   REMARKS
Chas Airport   MOCLDY    68  62  81 E12       30.06F
6HR MIN TEMP:  67; 6HR MAX TEMP:  68;

Seattle        CLOUDY    45  40  82 SW16      29.99S
6HR MIN TEMP:  45; 6HR MAX TEMP:  54;

Charlotte      CLEAR     63  54  72 SE14      30.07R
6HR MIN TEMP:  63; 6HR MAX TEMP:  74;

Dallas DFW     PTCLDY    58  48  69 W15       29.83F
6HR MIN TEMP:  58; 6HR MAX TEMP:  78;

Dallas Love    PTCLDY    59  47  64 NW13      29.84F
6HR MIN TEMP:  59; 6HR MAX TEMP:  78;

Philladelphia  PTCLDY    43  25  49 N14       30.21F
6HR MIN TEMP:  43; 6HR MAX TEMP:  55;

Wash National  PTCLDY    51  32  48 NE8       30.21R
6HR MIN TEMP:  51; 6HR MAX TEMP:  61;

Baltimore      CLEAR     47  28  47 NE9       30.19F
6HR MIN TEMP:  47; 6HR MAX TEMP:  56;

Miami          PTCLDY    73  63  70 E6        30.03R
6HR MIN TEMP:  73; 6HR MAX TEMP:  77;

Detroit        CLOUDY    40  33  76 NE10      30.17F WCI  33
6HR MIN TEMP:  40; 6HR MAX TEMP:  48; 6HR PCP: TRACE;

Newark         PTCLDY    40  23  50 N10       30.22F WCI  33
6HR MIN TEMP:  39; 6HR MAX TEMP:  52;

Laguardia      PTCLDY    43  22  43 NE9       30.22F
6HR MIN TEMP:  43; 6HR MAX TEMP:  53;

J F K          CLEAR     40  23  50 N6        30.23S WCI  36
6HR MIN TEMP:  40; 6HR MAX TEMP:  51;

Boston Logan   PTCLDY    36  24  62 NW15      30.15S WCI  27
6HR MIN TEMP:  36; 6HR MAX TEMP:  42;

Ft. Lauderdale PTCLDY    74  63  68 SE7       30.02S
6HR MIN TEMP:  74; 6HR MAX TEMP:  77;

Chicago O`Hare LGT RAIN  43  38  82 NE18      29.97F
6HR MIN TEMP:  43; 6HR MAX TEMP:  46; 6HR PCP:  0.10;

Chicago Midway LGT RAIN  43  40  89 NE17G37   29.94F FOG
6HR MIN TEMP:  44; 6HR MAX TEMP:  47; 6HR PCP:  0.15;

Houston Bush   PTCLDY    65  64  97 CALM      29.81S
6HR MIN TEMP:  64; 6HR MAX TEMP:  77;

Houston Hobby  PTCLDY    65  63  93 CALM      29.80F
6HR MIN TEMP:  65; 6HR MAX TEMP:  77;

Nashville      CLOUDY    69  58  67 S5        29.88S
6HR MIN TEMP:  68; 6HR MAX TEMP:  77;

Atlanta        MOCLDY    69  60  73 CALM      29.98S
6HR MIN TEMP:  69; 6HR MAX TEMP:  80;


$$

GAZ044-118-TXZ119-213-NCZ071-DCZ001-MDZ014-506-PAZ021-071-NJZ106-
NYZ176-178-MAZ106-OHZ011-021-055-MIZ076-KYZ091-ILZ014-INZ047-
MNZ060-ONZ431-300700-

...Gateway Observations for Savannah International...

CITY           SKY/WX    TMP DP  RH WIND       PRES   REMARKS
Savannah Arpt  MOCLDY    66  62  87 E5        30.02F
6HR MIN TEMP:  65; 6HR MAX TEMP:  75;

Atlanta        MOCLDY    69  60  73 CALM      29.98S
6HR MIN TEMP:  69; 6HR MAX TEMP:  80;

Charlotte      CLEAR     63  54  72 SE14      30.07R
6HR MIN TEMP:  63; 6HR MAX TEMP:  74;

Dallas DFW     PTCLDY    58  48  69 W15       29.83F
6HR MIN TEMP:  58; 6HR MAX TEMP:  78;

Houston Bush   PTCLDY    65  64  97 CALM      29.81S
6HR MIN TEMP:  64; 6HR MAX TEMP:  77;

Wash National  PTCLDY    51  32  48 NE8       30.21R
6HR MIN TEMP:  51; 6HR MAX TEMP:  61;

Wash Dulles    CLEAR     47  32  56 NE3       30.20R
6HR MIN TEMP:  47; 6HR MAX TEMP:  59;

Baltimore      CLEAR     47  28  47 NE9       30.19F
6HR MIN TEMP:  47; 6HR MAX TEMP:  56;

Philadelphia   PTCLDY    43  25  49 N14       30.21F
6HR MIN TEMP:  43; 6HR MAX TEMP:  55;

Newark         PTCLDY    40  23  50 N10       30.22F WCI  33
6HR MIN TEMP:  39; 6HR MAX TEMP:  52;

Laguardia      PTCLDY    43  22  43 NE9       30.22F
6HR MIN TEMP:  43; 6HR MAX TEMP:  53;

J F K          CLEAR     40  23  50 N6        30.23S WCI  36
6HR MIN TEMP:  40; 6HR MAX TEMP:  51;

Boston         PTCLDY    36  24  62 NW15      30.15S WCI  27
6HR MIN TEMP:  36; 6HR MAX TEMP:  42;

Pittsburg      PTCLDY    46  30  53 NE6       30.11S
6HR MIN TEMP:  46; 6HR MAX TEMP:  56;

Akron          CLOUDY    45  30  55 NE8       30.13R
6HR MIN TEMP:  42; 6HR MAX TEMP:  51;

Cleveland      CLOUDY    46  33  60 NE5       30.16F
6HR MIN TEMP:  46; 6HR MAX TEMP:  51;

Cincinnati     CLOUDY    53  44  71 SE14      29.95F
6HR MIN TEMP:  52; 6HR MAX TEMP:  55;

Columbus       PTCLDY    47  36  64 E7        30.02F
Detroit        CLOUDY    40  33  76 NE10      30.17F WCI  33
6HR MIN TEMP:  40; 6HR MAX TEMP:  48; 6HR PCP: TRACE;

Chicago O`Hare LGT RAIN  43  38  82 NE18      29.97F
6HR MIN TEMP:  43; 6HR MAX TEMP:  46; 6HR PCP:  0.10;

Minneapolis    CLOUDY    42  36  79 E12       30.06F
6HR MIN TEMP:  42; 6HR MAX TEMP:  45; 6HR PCP: TRACE;

Indianapolis   CLOUDY    55  42  61 E14       29.90F
6HR MIN TEMP:  54; 6HR MAX TEMP:  58;

Toronto Canada MOCLDY    37  25  60 E10       30.28R WCI  30

$$




USA.gov is the U.S. government's official web portal to all federal, state and local government web resources and services.